Regional Weather Roundup
Issued by NWS

Home | Current Version | Previous Version | Text Only | Print | Product List | Glossary On
Versions: 1 2 3 4 5 6 7 8 9 10 11 12 13 14 15 16 17 18 19 20 21 22 23 24 25 26 27
000
ASUS45 KBOI 010610
RWRID

IDAHO REGIONAL WEATHER ROUNDUP
NATIONAL WEATHER SERVICE BOISE ID
1200 AM MDT MON MAY 01 2017

NOTE: "FAIR" INDICATES FEW OR NO CLOUDS BELOW 12000 FEET
WITH NO SIGNIFICANT WEATHER AND/OR OBSTRUCTIONS TO VISIBILITY

IDZ012-014-010700-
SOUTHWEST IDAHO


CITY           SKY/WX    TMP DP  RH WIND       PRES   REMARKS
BOISE          CLEAR     53  35  50 NW14      30.09R
CALDWELL       CLEAR     50  33  52 W15       30.12R
MOUNTAIN HOME  PTCLDY    50  42  74 W13       30.08S
$$

IDZ016-017-010700-
SOUTHCENTRAL IDAHO


CITY           SKY/WX    TMP DP  RH WIND       PRES   REMARKS
BURLEY         MOCLDY    51  36  56 W13       30.05S
JEROME         MOCLDY    49  38  65 SW9       30.08R
TWIN FALLS     CLOUDY    49  39  68 SW10      30.08S
$$

IDZ019>023-010700-
SOUTHEAST IDAHO


CITY           SKY/WX    TMP DP  RH WIND       PRES   REMARKS
IDAHO FALLS    CLOUDY    45  37  73 SW6       30.01R
POCATELLO      CLOUDY    48  37  65 SW15      30.04S
REXBURG        CLOUDY    47  36  65 CALM      30.00R
$$

IDZ006-010-011-018-031-032-010700-
CENTRAL IDAHO MOUNTAINS


CITY           SKY/WX    TMP DP  RH WIND       PRES   REMARKS
MCCALL         PTCLDY    35  32  88 NE5       30.11R WCI  31
HAILEY         CLEAR     41  30  65 W6        30.08F
STANLEY          N/A     33  29  85 S3        30.12F
SALMON         CLOUDY    41  34  75 S5        30.06S
CHALLIS        PTCLDY    38  31  76 NW5       30.08S WCI  34
$$

IDZ002-004-006-007-026-010700-
NORTHERN IDAHO


CITY           SKY/WX    TMP DP  RH WIND       PRES   REMARKS
LEWISTON       CLOUDY    50  31  48 W6        30.18R
LOWELL           N/A     49  42  77 NW5       30.18R
COEUR D`ALENE  CLOUDY    49  31  49 SW6       30.08R
MULLAN PASS    CLOUDY    32  25  75 VRB7      30.08S WCI  26
$$




USA.gov is the U.S. government's official web portal to all federal, state and local government web resources and services.